Weather History for KHDO - September, 2013

Change the Weather History Date:

Monday, September 2, 2013

  Actual Average Record
Temperature  
Mean Temperature 88 °F -  
Max Temperature 102 °F 91 °F 105 °F (2000)
Min Temperature 75 °F 68 °F 66 °F (2004)
Cooling Degree Days 22    
Growing Degree Days 38 (Base 50)    
Moisture  
Dew Point 67 °F    
Average Humidity 53    
Maximum Humidity 82    
Minimum Humidity 26    
Precipitation  
Precipitation 0.00 in - - ()
Sea Level Pressure  
Sea Level Pressure 29.89 in    
Wind  
Wind Speed 8 mph (East)    
Max Wind Speed 20 mph    
Max Gust Speed 25 mph    
Visibility 10 miles    
Events Thunderstorm    
Averages and records for this station are not official NWS values.
T = Trace of Precipitation, MM = Missing Value Source: NWS Daily Summary

Daily Weather History Graph

Daily Weather History Graph

Search for Another Location

Airport or City:

Trip Planner

Search our weather history database for the weather conditions in past years. The results will help you decide how hot, cold, wet, or windy it might be!

Date:

Astronomy

Sep. 02, 2013 Rise Set
Actual Time 7:14 AM CDT 7:57 PM CDT
Civil Twilight 6:50 AM CDT 8:21 PM CDT
Nautical Twilight 6:22 AM CDT 8:49 PM CDT
Astronomical Twilight 5:53 AM CDT 9:18 PM CDT
Moon 4:41 AM CDT (9/2) 6:06 PM CDT (9/2)
Length of Visible Light 13h 30m
Length of Day
12h 42m
Waning Crescent, 8% of the Moon is Illuminated
Sep 2
Waning Crescent
Sep 5
New
Sep 12
First Quarter
Sep 19
Full
Sep 26
Last Quarter

Hourly Weather History & Observations

Time (CDT) Temp. Heat Index Dew Point Humidity Pressure Visibility Wind Dir Wind Speed Gust Speed Precip Events Conditions
12:51 AM 84.0 °F 88.4 °F 70.0 °F 63% 29.88 in 10.0 mi SSE 12.7 mph - N/A   Clear
1:51 AM 82.9 °F 87.0 °F 70.0 °F 65% 29.88 in 10.0 mi SE 6.9 mph - N/A   Clear
2:51 AM 81.0 °F 84.1 °F 69.1 °F 67% 29.89 in 10.0 mi SE 3.5 mph - N/A   Clear
3:51 AM 80.1 °F 82.9 °F 69.1 °F 69% 29.89 in 10.0 mi SE 3.5 mph - N/A   Clear
4:51 AM 77.0 °F - 69.1 °F 76% 29.89 in 10.0 mi ENE 4.6 mph - N/A   Clear
5:51 AM 77.0 °F - 69.1 °F 76% 29.90 in 10.0 mi East 5.8 mph - N/A   Clear
6:51 AM 75.9 °F - 69.1 °F 79% 29.90 in 10.0 mi ENE 3.5 mph - N/A   Clear
7:51 AM 77.0 °F - 71.1 °F 82% 29.93 in 10.0 mi ENE 4.6 mph - N/A   Clear
8:51 AM 81.0 °F 85.2 °F 72.0 °F 74% 29.94 in 10.0 mi East 5.8 mph - N/A   Clear
9:51 AM 84.9 °F 90.1 °F 71.1 °F 63% 29.96 in 10.0 mi Variable 3.5 mph - N/A   Unknown
10:51 AM 89.1 °F 93.7 °F 69.1 °F 52% 29.97 in 10.0 mi Calm Calm - N/A   Clear
11:51 AM 93.9 °F 97.5 °F 66.9 °F 41% 29.95 in 10.0 mi Variable 3.5 mph - N/A   Clear
12:51 PM 96.1 °F 99.3 °F 66.0 °F 37% 29.93 in 10.0 mi SE 6.9 mph - N/A   Clear
1:51 PM 97.0 °F 99.9 °F 64.9 °F 35% 29.90 in 10.0 mi Calm Calm - N/A   Partly Cloudy
2:51 PM 99.0 °F 100.5 °F 63.0 °F 30% 29.86 in 10.0 mi Calm Calm - N/A   Clear
3:51 PM 100.9 °F 101.6 °F 60.1 °F 26% 29.84 in 10.0 mi ESE 11.5 mph 19.6 mph N/A   Partly Cloudy
4:32 PM 98.6 °F 101.0 °F 64.4 °F 32% 29.88 in 10.0 mi NW 13.8 mph 21.9 mph N/A Thunderstorm Mostly Cloudy
4:47 PM 93.2 °F 96.2 °F 66.2 °F 41% 29.87 in 10.0 mi North 19.6 mph 25.3 mph N/A   Overcast
4:51 PM 95.0 °F 99.0 °F 66.9 °F 40% 29.82 in 10.0 mi NNW 19.6 mph 25.3 mph N/A   Overcast
5:51 PM 95.0 °F 99.0 °F 66.9 °F 40% 29.81 in 10.0 mi North 17.3 mph 21.9 mph N/A   Clear
6:51 PM 91.9 °F 95.4 °F 66.9 °F 44% 29.83 in 10.0 mi North 11.5 mph - N/A   Mostly Cloudy
7:51 PM 89.1 °F 91.3 °F 66.0 °F 46% 29.84 in 10.0 mi NNE 9.2 mph - N/A   Mostly Cloudy
8:51 PM 88.0 °F 89.3 °F 64.0 °F 45% 29.89 in 10.0 mi South 19.6 mph 24.2 mph N/A   Mostly Cloudy
9:51 PM 84.9 °F 86.1 °F 64.0 °F 49% 29.93 in 10.0 mi South 9.2 mph - N/A   Clear
10:51 PM 82.9 °F 85.0 °F 66.0 °F 56% 29.93 in 10.0 mi SSE 8.1 mph - N/A   Partly Cloudy
11:51 PM 81.0 °F 83.0 °F 66.0 °F 60% 29.94 in 10.0 mi SSE 5.8 mph - N/A   Clear